This is the latest recevied weather packets stored in our database for station/object WA6OOO. If no packets are shown the sender has not sent any weather packets the latest 1 day(s).
| Time | Temp. | Humidity | Pressure | Rain* | Wind** | Luminosity | Snow |
|---|---|---|---|---|---|---|---|
| 1778039859 | 13.33° C | 86% | 1018.4 hPa | 0 mm | - | 0 W/m² | - |
| 1778039556 | 13.89° C | 85% | 1018.5 hPa | 0 mm | - | 0 W/m² | - |
| 1778039253 | 13.89° C | 84% | 1018.3 hPa | 0 mm | - | 0 W/m² | - |
| 1778038950 | 13.89° C | 83% | 1018.3 hPa | 0 mm | - | 0 W/m² | - |
| 1778038647 | 13.89° C | 83% | 1018.3 hPa | 0 mm | - | 0 W/m² | - |
| 1778038344 | 13.89° C | 83% | 1018.2 hPa | 0 mm | - | 0 W/m² | - |
| 1778038041 | 14.44° C | 83% | 1018.1 hPa | 0 mm | - | 0 W/m² | - |
| 1778037738 | 14.44° C | 81% | 1017.9 hPa | 0 mm | - | 0 W/m² | - |
| 1778037434 | 14.44° C | 80% | 1017.8 hPa | 0 mm | - | 0 W/m² | - |
| 1778037132 | 14.44° C | 80% | 1017.8 hPa | 0 mm | - | 0 W/m² | - |
| 1778036830 | 15° C | 79% | 1017.6 hPa | 0 mm | - | 0 W/m² | - |
| 1778036527 | 15° C | 79% | 1017.7 hPa | 0 mm | - | 0 W/m² | - |
| 1778035920 | 15° C | 78% | 1017.5 hPa | 0 mm | - | 1 W/m² | - |
| 1778035617 | 15° C | 78% | 1017.3 hPa | 0 mm | - | 2 W/m² | - |
| 1778035314 | 15° C | 78% | 1017.3 hPa | 0 mm | - | 4 W/m² | - |
| 1778035010 | 15.56° C | 77% | 1017.3 hPa | 0 mm | - | 7 W/m² | - |
| 1778034102 | 15.56° C | 76% | 1017 hPa | 0 mm | - | 17 W/m² | - |
| 1778033800 | 15.56° C | 75% | 1017 hPa | 0 mm | - | 20 W/m² | - |
| 1778033496 | 16.11° C | 75% | 1017.1 hPa | 0 mm | - | 23 W/m² | - |
| 1778033193 | 16.11° C | 74% | 1016.9 hPa | 0 mm | - | 27 W/m² | - |
| 1778032285 | 16.67° C | 73% | 1016.9 hPa | 0 mm | - | 39 W/m² | - |
| 1778031983 | 16.67° C | 73% | 1016.7 hPa | 0 mm | - | 66 W/m² | - |
| 1778031678 | 17.22° C | 71% | 1016.6 hPa | 0 mm | - | 74 W/m² | - |
| 1778031377 | 17.22° C | 71% | 1016.8 hPa | 0 mm | - | 83 W/m² | - |
| 1778031073 | 17.78° C | 71% | 1016.7 hPa | 0 mm | - | 90 W/m² | - |
* Rain latest hour (hover to see other rain measurements)
** Current wind speed in m/s (hover to see current wind gust speed)